EW6418 Weather Reports


time (UTC)temp
F
wind
direction
speed
knots
gust
knots
rain 1hr
in
rain 24hr
in
rain mn
in
humidity
%
barometer
mb
20260504214535 72 317 5.2 11.3 0.00 0.00 0.00 100 1012.0
20260504213031 73 5 7.8 13.0 0.00 0.00 0.00 100 1012.2
20260504211535 72 330 6.1 12.2 0.00 0.00 0.00 100 1012.3
20260504210022 72 340 5.2 15.6 0.00 0.00 0.00 100 1012.3
20260504204519 72 344 7.8 13.9 0.00 0.00 0.00 100 1012.4
20260504203016 72 57 6.1 12.2 0.00 0.00 0.00 100 1012.7
20260504201513 70 313 6.1 11.3 0.00 0.00 0.00 100 1013.3
20260504200009 68 5 6.1 12.2 0.00 0.00 0.00 100 1013.6
20260504194508 68 25 7.0 11.3 0.00 0.00 0.00 100 1014.1
20260504193008 67 5 7.8 17.4 0.00 0.00 0.00 100 1014.2
20260504191509 68 342 9.6 16.5 0.00 0.00 0.00 100 1013.9
20260504190007 69 336 7.8 15.6 0.00 0.00 0.00 100 1013.4
20260504184505 69 344 8.7 16.5 0.00 0.00 0.00 100 1013.3
20260504183008 68 12 7.0 13.9 0.00 0.00 0.00 100 1013.5
20260504181502 67 355 6.1 11.3 0.00 0.00 0.00 100 1013.3
20260504180100 67 346 6.1 14.8 0.00 0.00 0.00 100 1013.3
20260504174558 67 355 7.0 11.3 0.00 0.00 0.00 100 1013.4
20260504173058 66 340 7.8 14.8 0.00 0.00 0.00 100 1013.7
20260504171556 67 341 7.0 13.9 0.00 0.00 0.00 100 1013.9
20260504081540 50 346 4.3 10.4 0.00 0.00 0.00 100 1016.7
20260504050004 53 313 4.3 10.4 0.00 0.00 0.00 100 1018.6
20260504044600 53 329 3.5 7.8 0.00 0.00 0.00 100 1018.8
20260504043104 53 331 4.3 7.8 0.00 0.00 0.00 100 1018.9
20260504041554 52 326 2.6 7.0 0.00 0.00 0.00 100 1019.1
20260504040123 52 331 2.6 5.2 0.00 0.00 0.00 100 1019.2
20260504034550 53 323 1.7 7.0 0.00 0.00 0.00 100 1019.3
20260504033051 53 316 2.6 5.2 0.00 0.00 0.00 100 1019.4
20260504031600 54 322 3.5 7.8 0.00 0.00 0.00 100 1019.5
20260504030049 54 323 3.5 7.0 0.00 0.00 0.00 100 1019.8
20260504024550 51 325 1.7 5.2 0.00 0.00 0.00 100 1019.8
20260504023048 51 152 0.0 0.0 0.00 0.00 0.00 100 1019.7
20260504021549 51 152 0.0 1.7 0.00 0.00 0.00 100 1019.8
20260504014547 52 152 0.0 0.0 0.00 0.00 0.00 100 1019.8
20260504013047 52 152 0.0 0.9 0.00 0.00 0.00 100 1019.8
20260504011546 52 152 0.0 0.9 0.00 0.00 0.00 100 1019.7
20260504010049 52 152 0.0 1.7 0.00 0.00 0.00 100 1019.6
20260504004545 52 152 0.9 1.7 0.00 0.00 0.00 100 1019.7
20260504003045 53 146 0.0 1.7 0.00 0.00 0.00 100 1019.3
20260504001550 53 107 0.0 0.9 0.00 0.00 0.00 100 1019.4
20260504000041 54 107 0.0 0.9 0.00 0.00 0.00 100 1019.6
20260503234600 54 107 0.0 0.9 0.00 0.00 0.00 100 1019.7
20260503233045 55 107 0.0 0.9 0.00 0.00 0.00 100 1020.1
20260503231536 55 106 0.0 0.9 0.00 0.00 0.00 100 1020.3
20260503230034 55 106 0.0 1.7 0.00 0.00 0.00 100 1020.6
20260503224534 55 53 0.0 1.7 0.00 0.00 0.00 100 1020.6
20260503223033 54 52 0.0 0.9 0.00 0.00 0.00 100 1020.8
20260503221536 53 52 0.0 0.9 0.00 0.00 0.00 100 1020.9
20260503220031 53 44 0.9 12.2 0.00 0.00 0.00 100 1021.1